Location: Brasstown Bald
(34.8693°N, 83.8103°W)
Time: 13:17:45
(UTC-05:00)

Amateur Radio Satellites - All Passes

Search period start: 25 January 2015 12:47
Search period end: 26 January 2015 12:47
Location: Brasstown Bald, 34.8693°N, 83.8103°W

Satellite Date Start Highest point End Downlink Frequencies (MHz)
Time Altitude Azimuth
ITAMSAT 1 25 Jan 12:51:54 12:54:27 14° 65° (ENE) 12:57:16 435.822/435.867
BEESAT 25 Jan 12:52:55 12:53:46 11° 89° (E) 12:55:00 436.000
ITUPSAT 1 25 Jan 12:53:53 12:54:49 11° 89° (E) 12:56:07 437.325
PHONESAT 2.4 25 Jan 12:57:00 13:00:25 37° 351° (N) 13:03:51 2401.200-2431.200
SO-50 25 Jan 13:14:49 13:17:20 14° 316° (NW) 13:19:43 436.795
CUBEBUG 1 25 Jan 13:18:14 13:19:55 12° 293° (WNW) 13:21:21 437.445
SPROUT 25 Jan 13:18:56 13:23:05 43° 286° (WNW) 13:27:10 437.525
Gurwin Techsat 1B 25 Jan 13:22:01 13:25:36 19° 67° (ENE) 13:29:23 435.225
AIST 2 25 Jan 13:26:45 13:30:57 52° 58° (ENE) 13:35:03 435.215
RS-15 25 Jan 13:31:08 13:40:22 29° 40° (NE) 13:50:15 29.354- 29.394
AIST 1 25 Jan 13:34:35 13:36:28 12° 289° (WNW) 13:38:06
AO-7 25 Jan 13:49:21 13:52:16 13° 53° (NE) 13:55:46 29.400- 29.500
BEESAT 2 25 Jan 13:54:22 13:57:58 28° 247° (WSW) 14:01:26 435.950
VERMONT LUNAR 25 Jan 14:02:52 14:06:07 34° 8° (N) 14:09:24 437.305
SWISSCUBE 25 Jan 14:10:39 14:15:27 88° 283° (WNW) 14:20:15 437.505
TISAT 1 25 Jan 14:13:36 14:15:04 11° 293° (WNW) 14:16:16 437.305
BEESAT 3 25 Jan 14:14:03 14:16:29 15° 250° (WSW) 14:18:42 437.485
PCSat 25 Jan 14:16:43 14:21:11 26° 53° (NE) 14:25:43 145.827
KKS-1 25 Jan 14:22:33 14:25:46 20° 94° (E) 14:29:06 437.445
Oscar 19 25 Jan 14:23:17 14:27:27 23° 266° (W) 14:31:30 437.125/150
STARS 25 Jan 14:26:54 14:29:01 14° 91° (E) 14:31:23 437.465
BEESAT 25 Jan 14:27:24 14:32:08 63° 285° (WNW) 14:36:51 436.000
ITAMSAT 1 25 Jan 14:28:24 14:33:30 61° 259° (WSW) 14:38:39 435.822/435.867
ITUPSAT 1 25 Jan 14:28:30 14:33:15 63° 285° (WNW) 14:37:58 437.325
GONETS M04 25 Jan 14:29:24 14:37:33 46° 270° (W) 14:45:37
PHONESAT 2.4 25 Jan 14:36:04 14:39:29 36° 8° (N) 14:42:54 2401.200-2431.200
Gurwin Techsat 1B 25 Jan 15:00:11 15:05:17 46° 261° (W) 15:10:22 435.225
AUBIESAT-1 25 Jan 15:03:56 15:03:57 10° 97° (E) 15:04:11 437.475
HORYU 2 25 Jan 15:04:28 15:08:55 64° 75° (ENE) 15:13:24 437.375
AIST 2 25 Jan 15:07:36 15:09:09 11° 251° (WSW) 15:10:27 435.215
CUSAT 1 25 Jan 15:30:42 15:36:12 29° 68° (ENE) 15:40:40 437.405
AO-7 25 Jan 15:35:30 15:43:45 67° 70° (ENE) 15:52:04 29.400- 29.500
VERMONT LUNAR 25 Jan 15:40:56 15:44:29 85° 205° (SSW) 15:48:02 437.305
RS-15 25 Jan 15:42:49 15:54:19 84° 242° (WSW) 16:06:18 29.354- 29.394
JAS-2 25 Jan 15:53:43 15:58:39 32° 72° (ENE) 16:03:22 435.910
KKS-1 25 Jan 15:58:30 16:02:30 31° 288° (WNW) 16:06:26 437.445
M-CUBED/EXP-1 PRIME 25 Jan 15:59:00 16:02:18 82° 105° (ESE) 16:05:42 437.505
PCSat 25 Jan 15:59:42 16:04:43 38° 250° (WSW) 16:09:39 145.827
STARS 25 Jan 16:01:33 16:05:48 44° 287° (WNW) 16:10:00 437.465
PHONESAT 2.4 25 Jan 16:14:37 16:18:17 85° 208° (SSW) 16:21:58 2401.200-2431.200
DANDE 25 Jan 16:21:14 16:28:16 72° 79° (ENE) 16:33:27 436.750
AUBIESAT-1 25 Jan 16:36:07 16:39:05 31° 291° (WNW) 16:42:06 437.475
MOZHAYETS 4 25 Jan 17:06:35 17:10:59 47° 98° (E) 17:15:24
O/OREOS (USA 219) 25 Jan 17:06:53 17:11:16 59° 107° (ESE) 17:15:42 437.305
CUSAT 1 25 Jan 17:13:45 17:19:15 30° 274° (W) 17:23:29 437.405
VERMONT LUNAR 25 Jan 17:20:08 17:22:19 15° 217° (SW) 17:24:25 437.305
AO-7 25 Jan 17:30:48 17:37:13 23° 267° (W) 17:43:18 29.400- 29.500
Cubesat XI-IV 25 Jan 17:38:22 17:43:20 43° 72° (ENE) 17:48:23 437.490
JAS-2 25 Jan 17:38:54 17:43:50 27° 264° (W) 17:48:19 435.910
PHONESAT 2.4 25 Jan 17:54:14 17:56:34 16° 217° (SW) 17:58:48 2401.200-2431.200
RS-15 25 Jan 17:58:28 18:05:36 17° 257° (WSW) 18:11:52 29.354- 29.394
CUTE-I 25 Jan 17:59:17 18:04:32 68° 75° (ENE) 18:09:51 437.470
DANDE 25 Jan 18:07:26 18:10:28 13° 281° (W) 18:12:48 436.750
MOZHAYETS 4 25 Jan 18:45:23 18:47:53 14° 292° (WNW) 18:50:10
CUBESAT XI-V 25 Jan 18:47:11 18:51:37 41° 98° (E) 18:56:03 437.345
O/OREOS (USA 219) 25 Jan 18:49:22 18:51:11 12° 305° (NW) 18:52:45 437.305
STRAND 1 25 Jan 18:51:49 18:56:21 32° 97° (E) 19:00:57 437.568
PRISM 25 Jan 18:57:53 19:02:02 84° 102° (ESE) 19:06:12 437.425
JUGNU 25 Jan 19:04:26 19:07:23 14° 169° (S) 19:10:24 437.505
Cubesat XI-IV 25 Jan 19:19:46 19:23:41 20° 267° (W) 19:27:24 437.490
YUBILEINY 25 Jan 19:28:30 19:35:43 32° 87° (E) 19:43:10 435.215
CUTE-I 25 Jan 19:43:05 19:45:13 12° 271° (W) 19:46:58 437.470
BRITE-PL 25 Jan 19:54:49 19:59:05 33° 71° (ENE) 20:03:45 437.365/2234.400
HO-68 25 Jan 19:57:24 20:04:00 43° 68° (ENE) 20:10:41 435.675
SEEDS 25 Jan 20:01:51 20:04:58 21° 71° (ENE) 20:08:12 437.485
SO-50 25 Jan 20:06:43 20:10:52 27° 51° (NE) 20:15:05 436.795
GOMX 1 25 Jan 20:10:55 20:15:16 33° 71° (ENE) 20:19:57 467.674
CUBESAT XI-V 25 Jan 20:25:40 20:28:47 17° 291° (WNW) 20:31:44 437.345
STRAND 1 25 Jan 20:31:12 20:35:27 26° 291° (WNW) 20:39:36 437.568
COMPASS 1 25 Jan 20:33:22 20:37:19 39° 74° (ENE) 20:41:18 437.405
CANX-2 25 Jan 20:35:09 20:39:26 69° 77° (ENE) 20:43:44 2200.000
DOVE 4 25 Jan 20:41:48 20:46:30 50° 74° (ENE) 20:51:30 437.250
Oscar 11 25 Jan 20:47:51 20:51:21 25° 71° (ENE) 20:54:56 145.826/435.025
JUGNU 25 Jan 20:51:42 20:55:43 19° 179° (S) 20:59:45 437.505
CINEMA 3 25 Jan 20:58:51 21:03:23 43° 73° (ENE) 21:08:07 145.822/145.860
CUTE 1.7 + AOD 2 25 Jan 20:59:57 21:04:13 65° 259° (W) 21:08:31 437.475
CUBEBUG 2 25 Jan 21:01:58 21:05:49 26° 71° (ENE) 21:09:50 437.445
AAUSAT CUBESAT 2 25 Jan 21:02:30 21:06:44 80° 77° (ENE) 21:10:58 437.432
UKube-1 25 Jan 21:20:32 21:24:25 34° 72° (ENE) 21:28:22 .
DELFI C3 25 Jan 21:20:49 21:24:45 46° 75° (ENE) 21:28:41 145.870
YUBILEINY 25 Jan 21:23:57 21:32:16 48° 283° (WNW) 21:40:33 435.215
SRMSAT 25 Jan 21:24:33 21:28:14 17° 173° (S) 21:31:57 437.500
ZACube-1 25 Jan 21:26:59 21:31:02 33° 73° (ENE) 21:35:13 437.345
BRITE-PL 25 Jan 21:33:48 21:37:42 23° 268° (W) 21:41:44 437.365/2234.400
DX 1 25 Jan 21:36:08 21:40:22 55° 75° (ENE) 21:44:39 434.975-435.025
SEEDS 25 Jan 21:36:58 21:40:40 27° 264° (W) 21:44:19 437.485
FUNcube-1 25 Jan 21:40:00 21:44:21 46° 74° (ENE) 21:48:47 145.935
AISAT 25 Jan 21:42:30 21:45:55 23° 70° (ENE) 21:49:27 437.250
HO-68 25 Jan 21:45:34 21:51:51 31° 264° (W) 21:58:00 435.675
SO-50 25 Jan 21:47:02 21:51:29 33° 247° (WSW) 21:55:50 436.795
GOMX 1 25 Jan 21:49:34 21:53:30 23° 268° (W) 21:57:31 467.674
UWE-3 25 Jan 21:49:40 21:54:17 75° 77° (ENE) 21:59:00 435.000/436.395/437.385
HUMSAT D 25 Jan 22:01:05 22:05:10 43° 74° (ENE) 22:09:20 437.325/437.525
COMPASS 1 25 Jan 22:10:58 22:13:16 14° 269° (W) 22:15:22 437.405
VELOX 1 25 Jan 22:12:01 22:16:15 47° 74° (ENE) 22:20:32 145.980
50 SAT 25 Jan 22:13:53 22:17:47 44° 74° (ENE) 22:21:45 437.505
ISS 25 Jan 22:20:48 22:23:09 19° 130° (SE) 22:25:35 145.825
DOVE 4 25 Jan 22:21:43 22:24:41 15° 271° (W) 22:27:30 437.250
Oscar 11 25 Jan 22:23:54 22:27:28 24° 265° (W) 22:30:59 145.826/435.025
CUBEBUG 1 25 Jan 22:33:00 22:36:46 30° 72° (ENE) 22:40:38 437.445
CINEMA 3 25 Jan 22:37:33 22:40:51 17° 269° (W) 22:44:02 145.822/145.860
CUBEBUG 2 25 Jan 22:38:28 22:42:28 27° 265° (W) 22:46:27 437.445
UNISAT 6 25 Jan 22:40:01 22:44:00 31° 96° (E) 22:47:55 437.425
JUGNU 25 Jan 22:40:32 22:44:04 16° 189° (S) 22:47:32 437.505
NANOSAT C BR1 25 Jan 22:46:53 22:50:09 21° 94° (E) 22:53:30 145.865
UKube-1 25 Jan 22:57:50 23:00:44 17° 267° (W) 23:03:28 .
QB50P2 25 Jan 22:58:29 23:02:16 30° 96° (E) 23:06:04 145.880/145.840
DELFI C3 25 Jan 22:59:09 23:00:19 11° 270° (W) 23:01:12 145.870
ZACube-1 25 Jan 23:04:09 23:07:31 20° 267° (W) 23:10:48 437.345
ESTCUBE 1 25 Jan 23:08:05 23:12:34 88° 78° (ENE) 23:17:04 437.505/2401.250
QB50P1 25 Jan 23:09:03 23:13:06 39° 98° (E) 23:17:08 145.935-145.965
SRMSAT 25 Jan 23:12:45 23:16:44 18° 183° (S) 23:20:40 437.500
ANTELSAT 25 Jan 23:15:18 23:19:49 85° 103° (ESE) 23:24:11 437.575/2403.000
DX 1 25 Jan 23:16:17 23:17:04 10° 270° (W) 23:17:31 434.975-435.025
FUNcube-1 25 Jan 23:18:30 23:21:01 14° 270° (W) 23:23:18 145.935
AISAT 25 Jan 23:18:38 23:22:26 27° 264° (W) 23:26:13 437.250
POLYITAN 1 25 Jan 23:20:58 23:25:14 57° 100° (E) 23:29:27 437.675
TISAT 1 25 Jan 23:25:10 23:28:40 26° 71° (ENE) 23:32:16 437.305
TIGRISAT 25 Jan 23:25:28 23:29:57 75° 284° (WNW) 23:34:18 435.000
HUMSAT D 25 Jan 23:38:58 23:41:15 14° 269° (W) 23:43:19 437.325/437.525
BUGSAT 1 25 Jan 23:41:16 23:45:34 76° 101° (E) 23:49:50 437.445
AIST 1 25 Jan 23:42:16 23:46:35 71° 265° (W) 23:50:55
POPSAT HIP 1 25 Jan 23:43:07 23:47:27 77° 284° (WNW) 23:51:44 437.405
DUCHIFAT 1 25 Jan 23:48:09 23:52:27 68° 284° (WNW) 23:56:41 145.980
VELOX 1 25 Jan 23:51:09 23:53:10 12° 269° (W) 23:54:57 145.980
50 SAT 25 Jan 23:51:33 23:53:13 12° 269° (W) 23:54:39 437.505
ISS 25 Jan 23:56:31 23:59:31 33° 324° (NW) 00:02:33 145.825
SPROUT 26 Jan 00:09:28 00:13:46 88° 258° (WSW) 00:18:06 437.525
CUBEBUG 1 26 Jan 00:10:06 00:13:15 19° 267° (W) 00:16:16 437.445
UNISAT 6 26 Jan 00:17:21 00:20:37 19° 291° (WNW) 00:23:41 437.425
NANOSAT C BR1 26 Jan 00:22:22 00:26:02 27° 288° (WNW) 00:29:35 145.865
QB50P2 26 Jan 00:34:52 00:38:02 19° 290° (WNW) 00:41:02 145.880/145.840
QB50P1 26 Jan 00:46:08 00:48:42 15° 291° (WNW) 00:51:04 145.935-145.965
Oscar 19 26 Jan 00:59:28 01:02:26 16° 91° (E) 01:05:39 437.125/150
POLYITAN 1 26 Jan 00:59:29 01:00:45 11° 293° (WNW) 01:01:44 437.675
TISAT 1 26 Jan 01:01:15 01:04:30 21° 266° (W) 01:07:40 437.305
SRMSAT 26 Jan 01:02:39 01:05:12 13° 193° (SSW) 01:07:40 437.500
SWISSCUBE 26 Jan 01:13:56 01:18:40 72° 75° (ENE) 01:23:26 437.505
KKS-1 26 Jan 01:19:10 01:21:02 13° 67° (ENE) 01:23:09 437.445
GONETS M04 26 Jan 01:29:28 01:37:30 43° 89° (E) 01:45:38
BEESAT 26 Jan 01:30:29 01:35:15 82° 257° (WSW) 01:40:02 436.000
ITUPSAT 1 26 Jan 01:31:55 01:36:41 81° 258° (WSW) 01:41:28 437.325
AUBIESAT-1 26 Jan 01:49:10 01:50:40 12° 66° (ENE) 01:52:19 437.475
BEESAT 3 26 Jan 02:27:03 02:29:37 17° 111° (ESE) 02:32:22 437.485
Oscar 19 26 Jan 02:37:10 02:42:09 50° 287° (WNW) 02:47:04 437.125/150
ITAMSAT 1 26 Jan 02:44:34 02:49:45 63° 101° (E) 02:54:57 435.822/435.867
M-CUBED/EXP-1 PRIME 26 Jan 02:44:43 02:48:58 66° 72° (ENE) 02:52:53 437.505
KKS-1 26 Jan 02:52:56 02:57:18 52° 260° (W) 03:01:42 437.445
STARS 26 Jan 02:54:55 02:59:21 78° 258° (WSW) 03:03:50 437.465
HORYU 2 26 Jan 03:00:45 03:03:22 16° 92° (E) 03:06:11 437.375
Gurwin Techsat 1B 26 Jan 03:19:31 03:24:52 87° 288° (WNW) 03:30:12 435.225
O/OREOS (USA 219) 26 Jan 03:20:03 03:24:38 65° 69° (ENE) 03:29:11 437.305
AUBIESAT-1 26 Jan 03:21:14 03:25:22 47° 255° (WSW) 03:29:11 437.475
AIST 2 26 Jan 03:22:24 03:25:51 25° 112° (ESE) 03:29:26 435.215
GONETS M04 26 Jan 03:26:31 03:34:29 36° 287° (WNW) 03:42:15
AO-7 26 Jan 03:41:57 03:48:31 27° 94° (E) 03:55:20 29.400- 29.500
BEESAT 2 26 Jan 03:45:23 03:49:28 64° 301° (WNW) 03:53:37 435.950
DANDE 26 Jan 03:45:55 03:50:50 19° 83° (E) 03:56:33 436.750
RS-15 26 Jan 03:55:15 04:01:21 18° 103° (ESE) 04:08:16 29.354- 29.394
BEESAT 3 26 Jan 04:03:45 04:07:32 35° 305° (NW) 04:11:20 437.485
MOZHAYETS 4 26 Jan 04:05:35 04:09:35 31° 72° (ENE) 04:13:39
ITAMSAT 1 26 Jan 04:26:00 04:28:48 14° 295° (WNW) 04:31:19 435.822/435.867
CUSAT 1 26 Jan 04:31:39 04:39:00 51° 92° (E) 04:47:10 437.405
HORYU 2 26 Jan 04:36:07 04:40:15 38° 287° (WNW) 04:44:20 437.375
JAS-2 26 Jan 04:49:02 04:54:18 39° 99° (E) 05:00:13 435.910
PCSat 26 Jan 04:54:34 04:59:39 44° 111° (ESE) 05:04:50 145.827
AIST 2 26 Jan 05:00:50 05:04:25 26° 307° (NW) 05:08:01 435.215
DANDE 26 Jan 05:25:38 05:33:19 82° 279° (W) 05:42:05 436.750
AO-7 26 Jan 05:33:39 05:41:48 59° 291° (WNW) 05:49:52 29.400- 29.500
MOZHAYETS 4 26 Jan 05:43:21 05:46:53 21° 266° (W) 05:50:18
YUBILEINY 26 Jan 05:45:11 05:47:39 12° 60° (ENE) 05:50:56 435.215
PRISM 26 Jan 05:45:24 05:49:12 37° 73° (ENE) 05:53:02 437.425
CUBESAT XI-V 26 Jan 05:47:54 05:51:42 27° 71° (ENE) 05:55:36 437.345
Cubesat XI-IV 26 Jan 05:59:37 06:03:44 23° 94° (E) 06:07:59 437.490
RS-15 26 Jan 06:01:32 06:12:31 90° 298° (WNW) 06:23:33 29.354- 29.394
STRAND 1 26 Jan 06:04:36 06:09:04 33° 71° (ENE) 06:13:38 437.568
CUSAT 1 26 Jan 06:15:18 06:22:23 34° 290° (WNW) 06:29:47 437.405
CUTE-I 26 Jan 06:20:07 06:25:00 36° 97° (E) 06:29:57 437.470
ISS 26 Jan 06:26:47 06:30:03 57° 40° (NE) 06:33:18 145.825
JAS-2 26 Jan 06:34:43 06:39:19 26° 290° (WNW) 06:44:09 435.910
PCSat 26 Jan 06:39:01 06:43:19 23° 308° (NW) 06:47:32 145.827
DANDE 26 Jan 07:13:22 07:18:23 16° 300° (WNW) 07:23:05 436.750
PRISM 26 Jan 07:22:44 07:24:57 14° 268° (W) 07:26:56 437.425
CUBESAT XI-V 26 Jan 07:25:23 07:29:09 24° 266° (W) 07:32:48 437.345
AO-7 26 Jan 07:31:15 07:33:07 11° 309° (NW) 07:34:21 29.400- 29.500
YUBILEINY 26 Jan 07:37:35 07:46:22 74° 81° (E) 07:55:11 435.215
Cubesat XI-IV 26 Jan 07:39:01 07:43:58 38° 289° (WNW) 07:48:53 437.490
STRAND 1 26 Jan 07:44:11 07:48:20 24° 265° (W) 07:52:23 437.568
CUTE-I 26 Jan 08:00:34 08:04:56 25° 292° (WNW) 08:09:10 437.470
BRITE-PL 26 Jan 08:04:02 08:07:25 17° 89° (E) 08:10:59 437.365/2234.400
ISS 26 Jan 08:05:28 08:06:14 10° 233° (SW) 08:06:51 145.825
GOMX 1 26 Jan 08:17:48 08:20:36 15° 88° (E) 08:23:38 467.674
RS-15 26 Jan 08:17:54 08:26:39 26° 323° (NW) 08:35:11 29.354- 29.394
CANX-2 26 Jan 08:25:34 08:27:56 15° 92° (E) 08:30:29 2200.000
DOVE 4 26 Jan 08:45:45 08:49:23 20° 91° (E) 08:53:06 437.250
CUTE 1.7 + AOD 2 26 Jan 08:49:17 08:52:51 26° 95° (E) 08:56:26 437.475
AAUSAT CUBESAT 2 26 Jan 08:50:40 08:53:10 16° 92° (E) 08:55:50 437.432
CINEMA 3 26 Jan 08:59:27 09:01:43 14° 89° (E) 09:04:12 145.822/145.860
PHONESAT 2.4 26 Jan 09:06:34 09:07:43 11° 141° (SE) 09:09:00 2401.200-2431.200
HO-68 26 Jan 09:15:40 09:22:43 61° 102° (ESE) 09:29:48 435.675
SEEDS 26 Jan 09:24:21 09:28:31 61° 100° (E) 09:32:38 437.485
DX 1 26 Jan 09:29:55 09:31:41 13° 91° (E) 09:33:44 434.975-435.025
FUNcube-1 26 Jan 09:34:47 09:35:59 11° 89° (E) 09:37:29 145.935
UNISAT 6 26 Jan 09:36:11 09:39:40 22° 70° (ENE) 09:43:18 437.425
YUBILEINY 26 Jan 09:36:27 09:42:26 20° 277° (W) 09:47:55 435.215
NANOSAT C BR1 26 Jan 09:38:40 09:39:53 11° 67° (ENE) 09:41:21 145.865
BRITE-PL 26 Jan 09:40:47 09:46:22 57° 286° (WNW) 09:51:44 437.365/2234.400
UWE-3 26 Jan 09:44:33 09:47:44 20° 92° (E) 09:51:01 435.000/436.395/437.385
QB50P2 26 Jan 09:49:34 09:52:06 16° 69° (ENE) 09:54:49 145.880/145.840
GOMX 1 26 Jan 09:53:51 09:59:13 59° 286° (WNW) 10:04:21 467.674
COMPASS 1 26 Jan 09:55:55 10:00:04 65° 284° (WNW) 10:04:10 437.405
QB50P1 26 Jan 09:59:32 10:02:37 20° 70° (ENE) 10:05:51 145.935-145.965
CANX-2 26 Jan 10:00:11 10:04:04 35° 287° (WNW) 10:07:54 2200.000
VERMONT LUNAR 26 Jan 10:03:36 10:07:02 59° 153° (SSE) 10:10:30 437.305
VELOX 1 26 Jan 10:08:12 10:09:52 12° 90° (E) 10:11:48 145.980
ANTELSAT 26 Jan 10:10:41 10:15:15 51° 74° (ENE) 10:19:51 437.575/2403.000
POLYITAN 1 26 Jan 10:11:20 10:14:59 28° 72° (ENE) 10:18:44 437.675
Oscar 11 26 Jan 10:13:43 10:18:03 79° 102° (ESE) 10:22:20 145.826/435.025
SO-50 26 Jan 10:19:39 10:22:19 16° 110° (ESE) 10:25:15 436.795
TIGRISAT 26 Jan 10:20:23 10:25:02 64° 76° (ENE) 10:29:44 435.000
DOVE 4 26 Jan 10:22:28 10:27:23 41° 288° (WNW) 10:32:03 437.250
AAUSAT CUBESAT 2 26 Jan 10:25:14 10:28:58 32° 287° (WNW) 10:32:39 437.432
CUTE 1.7 + AOD 2 26 Jan 10:25:27 10:28:40 21° 289° (WNW) 10:31:45 437.475
BUGSAT 1 26 Jan 10:28:39 10:32:16 32° 73° (ENE) 10:35:58 437.445
CUBEBUG 2 26 Jan 10:32:39 10:37:17 88° 101° (ESE) 10:41:44 437.445
POPSAT HIP 1 26 Jan 10:32:43 10:36:50 50° 75° (ENE) 10:41:01 437.405
CINEMA 3 26 Jan 10:34:36 10:39:22 51° 286° (WNW) 10:43:52 145.822/145.860
DUCHIFAT 1 26 Jan 10:37:22 10:41:32 56° 75° (ENE) 10:45:44 145.980
DELFI C3 26 Jan 10:39:28 10:43:28 59° 284° (WNW) 10:47:25 145.870
RS-15 26 Jan 10:41:44 10:44:55 11° 358° (N) 10:48:06 29.354- 29.394
PHONESAT 2.4 26 Jan 10:42:19 10:45:53 66° 154° (SSE) 10:49:30 2401.200-2431.200
UKube-1 26 Jan 10:47:09 10:51:32 79° 284° (WNW) 10:55:52 .
ZACube-1 26 Jan 10:55:13 10:59:41 73° 283° (WNW) 11:03:59 437.345
DX 1 26 Jan 11:04:02 11:08:16 47° 286° (WNW) 11:12:29 434.975-435.025
HO-68 26 Jan 11:04:32 11:09:59 23° 297° (WNW) 11:15:12 435.675
ESTCUBE 1 26 Jan 11:04:55 11:08:32 24° 95° (E) 11:12:14 437.505/2401.250
FUNcube-1 26 Jan 11:08:27 11:12:47 51° 285° (WNW) 11:16:58 145.935
NANOSAT C BR1 26 Jan 11:11:11 11:15:21 53° 260° (W) 11:19:33 145.865
UNISAT 6 26 Jan 11:12:01 11:16:18 33° 263° (W) 11:20:32 437.425
AISAT 26 Jan 11:12:14 11:16:45 74° 102° (ESE) 11:21:15 437.250
UWE-3 26 Jan 11:20:23 11:24:24 31° 288° (WNW) 11:28:15 435.000/436.395/437.385
QB50P2 26 Jan 11:23:48 11:27:46 37° 262° (W) 11:31:45 145.880/145.840
HUMSAT D 26 Jan 11:24:35 11:28:48 60° 284° (WNW) 11:32:55 437.325/437.525
50 SAT 26 Jan 11:31:40 11:35:43 66° 283° (WNW) 11:39:41 437.505
QB50P1 26 Jan 11:34:40 11:38:23 28° 264° (W) 11:42:03 145.935-145.965
VERMONT LUNAR 26 Jan 11:41:58 11:45:18 39° 349° (N) 11:48:38 437.305
VELOX 1 26 Jan 11:42:27 11:46:49 50° 286° (WNW) 11:51:10 145.980
GONETS M04 26 Jan 11:45:20 11:50:15 17° 64° (ENE) 11:55:45
POLYITAN 1 26 Jan 11:47:44 11:50:58 20° 266° (W) 11:54:07 437.675
ANTELSAT 26 Jan 11:49:56 11:52:24 13° 270° (W) 11:54:35 437.575/2403.000
SO-50 26 Jan 11:58:10 12:02:31 44° 304° (NW) 12:07:01 436.795
SPROUT 26 Jan 12:00:30 12:03:45 21° 94° (E) 12:07:06 437.525
CUBEBUG 1 26 Jan 12:00:55 12:05:23 80° 284° (WNW) 12:09:50 437.445
TIGRISAT 26 Jan 12:01:15 12:02:18 10° 271° (W) 12:03:01 435.000
BUGSAT 1 26 Jan 12:05:21 12:07:55 16° 268° (W) 12:10:20 437.445
AIST 1 26 Jan 12:08:14 12:12:29 81° 96° (E) 12:16:45
BEESAT 2 26 Jan 12:08:45 12:12:21 27° 53° (NE) 12:15:56 435.950
POPSAT HIP 1 26 Jan 12:11:47 12:13:07 11° 270° (W) 12:14:12 437.405
Oscar 19 26 Jan 12:13:16 12:16:35 18° 67° (ENE) 12:20:06 437.125/150
PHONESAT 2.4 26 Jan 12:21:11 12:24:37 39° 349° (N) 12:28:05 2401.200-2431.200
BEESAT 3 26 Jan 12:26:01 12:30:03 48° 57° (ENE) 12:34:01 437.485
